Showing default

JILIN-01 GAOFEN 3D 28, 52445

Orbit data source: Space-Track

JILIN-01 GAOFEN 3D 28, 52445 is a payload satellite owned by Changguang WJ (CN) in SSO that was launched on Thu, 05 May 2022 UTC via a CHANG ZHENG 2D launch vehicle from the Taiyaun Space Center, China (TSC). Payload-class satellites include a variety of spacecraft equipped with specific instruments for various scientific and technological missions. These include communications satellites like Starlink; space stations such as the ISS; scientific satellites like the Hubble; Earth observation satellites from companies like Planet Labs, Umbra, and HawkEye 360; GPS; miniature CubeSats for education and research; and military/defense satellites.

Loading next visibility...
Identifier
52445, 2022-048C
Orbit
SSO
Country
Flag of CNCN / PRC
Related business
Manufacturer
Changguang WJ
Mission
Operational Commercial Imaging
Bus & Motor
JL-1, Unknown motor
Mass
42 kg wet, 42 kg dry
Launch date (UTC)
2022-05-05 (4 years ago)
Launch vehicle
CHANG ZHENG 2D
Launch site
Taiyaun Space Center, China (TSC)
Object type
Payload
Rocket body
Debris
Shape & HBR
Box + 2 Pan, 0.8 m
Radar Cross Section
2.000 m², Medium (>0.1 m² and < 1m²)

Expand to show TLE details & history
Last TLE update: 9 hours ago

TLE from 9 hours ago
0 JILIN-01 GAOFEN 3D 28
1 52445U 22048C   25347.01320735  .00058762  00000-0  10683-2 0  9996
2 52445  97.5652  83.5505 0005443  26.3728 333.7799 15.49328915200477
Epoch: 2025-12-13T00:19Z
TLE epoch observation values (Epoch: 2025-12-13T00:19:01.115Z)
Latitude
0.00004°
Longitude
-3.15073°
Altitude
418.494 km
Speed
7.662 km/s
True Right ascension
05h 34m 12s
True Declination
0° 00' 00"
Sunlit
Object was in full shadow at epoch
Visualization orbit readout
Latitude
Unknown
Longitude
Unknown
Altitude
Unknown
Speed
Unknown
Apparent Right ascension
Unknown
Apparent Declination
Unknown
Sunlit
N/A
Visualization observer readout
Local Sidereal Time
07:34:25
Azimuth
Unknown
Elevation
Unknown
Doppler factor
Unknown
Orbital elements
Apogee altitude
419.32 km
Perigee altitude
411.924 km
Semi-major axis
6,793.759 km
Eccentricity
0.00054
Inclination
97.5652°
RAAN
83.5505°
Arg. of periapsis
26.3728°
True anomaly
333.75233°
Mean anomaly
333.7799°
Eccentric anomaly
333.76611°
Mean motion
3.87595 °/min
Orbital period
92.88 mins
BSTAR
0.0010683
Loading maneuver chart data...
Computing Atmospheric mass density...
Loading historical data...
Loading historical data...
Loading historical data...
Loading historical data...
Loading historical data...
Loading historical data...
Loading historical data...

Documentation

Showing up to 5 results
|